Вернуться в каталог

STARLINK-11727

АктивенСвязьVLEO
NORAD 64123·PAYLOAD·🇺🇸 United States

Запущен May 24, 2025 с Cape Canaveral Space Force Station

Loading…

Ближайшие Пролёты (ближайшие 24 часа)

TLE

СвежийSource: CelesTrak SupGP

Эпоха: Sep 15, 2026, 03:48 UTC

1 64123C 25111A   26258.15881944 -.00015378  00000+0 -11941-3 0  2581
2 64123  43.0005 272.1118 0001482 267.4512 110.8681 15.70852820    18

Отслеживайте STARLINK-11727 в реальном времени с AllMySat

Download on the App Store